Simultaneous Nadir Overpasses (SNOs) Predictions

Prediction of SNOs between GOES-15 and METOP-B Satellite Orbit:

Table of predicted SNOs for the next 14.0 days since TLE Epoch: 12/31/2022
Index Date Time (GOES-15) GOES-15 Lat,Lon METOP-B Lat,Lon Distance(km) Time Diff (sec)
1 01/02/2023 05:59:45 0.06,-127.81 0.11,-127.71 11.81 80
2 01/04/2023 18:00:37 -0.06,-127.82 -0.18,-127.27 62.26 80
3 01/06/2023 06:19:38 0.05,-127.92 -0.85,-131.87 449.82 80
4 01/07/2023 05:56:19 0.05,-127.95 0.32,-126.88 121.95 80
5 01/08/2023 18:15:09 -0.04,-127.92 0.77,-131.43 400.63 80
6 01/09/2023 17:57:11 -0.04,-127.94 -0.40,-126.44 171.39 80
7 01/11/2023 06:16:11 0.03,-128.04 -0.62,-131.04 340.89 80
8 01/12/2023 05:52:52 0.03,-128.07 0.50,-126.04 230.63 80
9 01/13/2023 18:11:43 -0.03,-128.03 0.52,-130.60 292.71 80
